Waarnemingen

Advertentie
Mijn weer
Moron de la Frontera, Spanje (8397): temperatuur & dauwpunt: 09.11.2018 20:00:00 - 15.11.2018 20:00:00 (CET)Moron de la Frontera, Spanje (8397): windsnelheid: 09.11.2018 20:00:00 - 15.11.2018 20:00:00 (CET)Moron de la Frontera, Spanje (8397): windrichting: 09.11.2018 20:00:00 - 15.11.2018 20:00:00 (CET)Moron de la Frontera, Spanje (8397): luchtdruk: 09.11.2018 20:00:00 - 15.11.2018 20:00:00 (CET)Moron de la Frontera, Spanje (8397): zicht: 09.11.2018 20:00:00 - 15.11.2018 20:00:00 (CET)
Datum & Tijd tt [°C] td [°C] ff [km/u] ff [kn] dd ppp [hPa] vv [km]
15.11.2018 20:00:00 - - - - - - -
15.11.2018 19:00:00 17,8 11,4 0 0 N 1015,3 15
15.11.2018 18:00:00 - - - - - - -
15.11.2018 17:00:00 - - - - - - -
15.11.2018 16:00:00 20,3 9,8 0 0 N 1014,5 20
15.11.2018 15:00:00 - - - - - - -
15.11.2018 14:00:00 - - - - - - -
15.11.2018 13:00:00 18,9 11,2 4 2 NO 1015,3 15
15.11.2018 12:00:00 - - - - - - -
15.11.2018 11:00:00 - - - - - - -
15.11.2018 10:00:00 14,1 10,9 0 0 N 1015,6 12
15.11.2018 09:00:00 - - - - - - -
15.11.2018 08:00:00 - - - - - - -
15.11.2018 07:00:00 12,0 9,6 0 0 N 1013,7 12
15.11.2018 06:00:00 - - - - - - -
15.11.2018 05:00:00 - - - - - - -
15.11.2018 04:00:00 15,6 10,4 5 3 O 1013,5 15
15.11.2018 03:00:00 - - - - - - -
15.11.2018 02:00:00 - - - - - - -
15.11.2018 01:00:00 14,3 10,1 9 5 O 1014,4 15
15.11.2018 00:00:00 - - - - - - -
14.11.2018 23:00:00 - - - - - - -
14.11.2018 22:00:00 17,1 9,3 5 3 O 1015,4 15
14.11.2018 21:00:00 - - - - - - -
14.11.2018 20:00:00 - - - - - - -
14.11.2018 19:00:00 18,5 8,7 4 2 OZO 1015,4 15
14.11.2018 18:00:00 - - - - - - -
14.11.2018 17:00:00 - - - - - - -
14.11.2018 16:00:00 22,3 9,8 11 6 ZO 1014,9 15
14.11.2018 15:00:00 - - - - - - -
14.11.2018 14:00:00 - - - - - - -
14.11.2018 13:00:00 20,9 12,1 8 4 ONO 1016,6 20
14.11.2018 12:00:00 - - - - - - -
14.11.2018 11:00:00 - - - - - - -
14.11.2018 10:00:00 14,9 12,6 5 3 ONO 1018,6 8
14.11.2018 09:00:00 - - - - - - -
14.11.2018 08:00:00 - - - - - - -
14.11.2018 07:00:00 14,1 11,8 9 5 O 1018,4 15
14.11.2018 06:00:00 - - - - - - -
14.11.2018 05:00:00 - - - - - - -
14.11.2018 04:00:00 17,3 9,7 9 5 OZO 1019,2 20
14.11.2018 03:00:00 - - - - - - -
14.11.2018 02:00:00 - - - - - - -
14.11.2018 01:00:00 17,7 10,3 9 5 ZO 1020,6 20
14.11.2018 00:00:00 - - - - - - -
13.11.2018 23:00:00 - - - - - - -
13.11.2018 22:00:00 15,6 12,9 0 0 N 1020,3 20
13.11.2018 21:00:00 - - - - - - -
13.11.2018 20:00:00 - - - - - - -
13.11.2018 19:00:00 17,1 13,2 0 0 N 1020,5 20
13.11.2018 18:00:00 - - - - - - -
13.11.2018 17:00:00 - - - - - - -
13.11.2018 16:00:00 19,5 10,8 2 1 N 1019,3 25
13.11.2018 15:00:00 - - - - - - -
13.11.2018 14:00:00 - - - - - - -
13.11.2018 13:00:00 16,1 11,9 5 3 O 1020,7 15
13.11.2018 12:00:00 - - - - - - -
13.11.2018 11:00:00 - - - - - - -
13.11.2018 10:00:00 13,8 11,8 4 2 O 1021,2 7
13.11.2018 09:00:00 - - - - - - -
13.11.2018 08:00:00 - - - - - - -
13.11.2018 07:00:00 12,7 11,3 9 5 ONO 1019,0 10
13.11.2018 06:00:00 - - - - - - -
13.11.2018 05:00:00 - - - - - - -
13.11.2018 04:00:00 13,2 11,6 4 2 OZO 1019,2 7
13.11.2018 03:00:00 - - - - - - -
13.11.2018 02:00:00 - - - - - - -
13.11.2018 01:00:00 14,3 11,8 0 0 N 1019,7 15
13.11.2018 00:00:00 - - - - - - -
12.11.2018 23:00:00 - - - - - - -
12.11.2018 22:00:00 13,9 12,1 5 3 ZZO 1019,1 15
12.11.2018 21:00:00 - - - - - - -
12.11.2018 20:00:00 - - - - - - -
12.11.2018 19:00:00 14,9 11,9 4 2 NNW 1017,4 25
12.11.2018 18:00:00 - - - - - - -
12.11.2018 17:00:00 - - - - - - -
12.11.2018 16:00:00 17,4 11,4 9 5 O 1014,6 30
12.11.2018 15:00:00 - - - - - - -
12.11.2018 14:00:00 - - - - - - -
12.11.2018 13:00:00 16,4 11,6 5 3 Z 1015,8 20
12.11.2018 12:00:00 - - - - - - -
12.11.2018 11:00:00 - - - - - - -
12.11.2018 10:00:00 13,8 11,1 15 8 ZZW 1016,2 20
12.11.2018 09:00:00 - - - - - - -
12.11.2018 08:00:00 - - - - - - -
12.11.2018 07:00:00 13,4 12,0 0 0 N 1013,0 9
12.11.2018 06:00:00 - - - - - - -
12.11.2018 05:00:00 - - - - - - -
12.11.2018 04:00:00 13,0 11,6 4 2 NNO 1013,3 10
12.11.2018 03:00:00 - - - - - - -
12.11.2018 02:00:00 - - - - - - -
12.11.2018 01:00:00 12,9 11,5 8 4 ZZW 1013,8 20
12.11.2018 00:00:00 - - - - - - -
11.11.2018 23:00:00 - - - - - - -
11.11.2018 22:00:00 15,7 13,4 8 4 ZW 1013,5 20
11.11.2018 21:00:00 - - - - - - -
11.11.2018 20:00:00 - - - - - - -
11.11.2018 19:00:00 17,4 13,7 11 6 W 1012,8 25
11.11.2018 18:00:00 - - - - - - -
11.11.2018 17:00:00 - - - - - - -
11.11.2018 16:00:00 22,2 12,2 2 1 NW 1012,4 25
11.11.2018 15:00:00 - - - - - - -
11.11.2018 14:00:00 - - - - - - -
11.11.2018 13:00:00 20,9 11,8 4 2 ZW 1014,8 25
11.11.2018 12:00:00 - - - - - - -
11.11.2018 11:00:00 - - - - - - -
11.11.2018 10:00:00 16,4 14,2 8 4 ZZO 1017,3 25
11.11.2018 09:00:00 - - - - - - -
11.11.2018 08:00:00 - - - - - - -
11.11.2018 07:00:00 15,5 13,9 4 2 ZZW 1017,2 10
11.11.2018 06:00:00 - - - - - - -
11.11.2018 05:00:00 - - - - - - -
11.11.2018 04:00:00 14,4 12,8 5 3 Z 1017,7 15
11.11.2018 03:00:00 - - - - - - -
11.11.2018 02:00:00 - - - - - - -
11.11.2018 01:00:00 15,9 13,4 9 5 ZW 1019,0 15
11.11.2018 00:00:00 - - - - - - -
10.11.2018 23:00:00 - - - - - - -
10.11.2018 22:00:00 15,7 13,4 9 5 ZZW 1019,4 15
10.11.2018 21:00:00 - - - - - - -
10.11.2018 20:00:00 - - - - - - -
10.11.2018 19:00:00 16,4 12,9 9 5 ZW 1019,0 20
10.11.2018 18:00:00 - - - - - - -
10.11.2018 17:00:00 - - - - - - -
10.11.2018 16:00:00 16,5 13,8 9 5 ZZW 1019,1 15
10.11.2018 15:00:00 - - - - - - -
10.11.2018 14:00:00 - - - - - - -
10.11.2018 13:00:00 16,3 11,0 5 3 W 1020,6 20
10.11.2018 12:00:00 - - - - - - -
10.11.2018 11:00:00 - - - - - - -
10.11.2018 10:00:00 14,3 10,7 9 5 Z 1021,3 20
10.11.2018 09:00:00 - - - - - - -
10.11.2018 08:00:00 - - - - - - -
10.11.2018 07:00:00 10,7 9,1 5 3 ZZW 1021,1 20
10.11.2018 06:00:00 - - - - - - -
10.11.2018 05:00:00 - - - - - - -
10.11.2018 04:00:00 9,5 7,4 5 3 ZZW 1021,6 15
10.11.2018 03:00:00 - - - - - - -
10.11.2018 02:00:00 - - - - - - -
10.11.2018 01:00:00 10,1 7,9 5 3 ZZW 1022,7 20
10.11.2018 00:00:00 - - - - - - -
09.11.2018 23:00:00 - - - - - - -
09.11.2018 22:00:00 11,5 8,7 5 3 ZZW 1023,7 20
09.11.2018 21:00:00 - - - - - - -
09.11.2018 20:00:00 - - - - - - -

tt = temperatuur
td = dauwpunt
ff = windsnelheid
dd = windrichting
ppp = luchtdruk
vv = zicht

Weerstations in de omgeving